User: anonymous   Login
Location: Caltech
(34.1382°N, 118.1253°W)
Time: 10:51:35
(UTC-07:00)
Language:

Meteor 1-11 Rocket - Orbit

View from above orbital plane
View from above orbital plane
View from above satellite
View from above satellite

Ground track
Ground track

The orbit data is extracted from the following two-line orbital elements,

1 05918U 72022B   16176.85805057  .00000023  00000-0  69038-5 0  9991
2 05918  81.2380 311.5316 0057442 250.3070 109.1896 14.05805793267782
Epoch (UTC): 24 June 2016 20:35:35
Eccentricity: 0.0057442
inclination: 81.2380°
perigee height: 832 km
apogee height: 915 km
right ascension of ascending node: 311.5316°
argument of perigee: 250.3070°
revolutions per day: 14.05805793
mean anomaly at epoch: 109.1896°
orbit number at epoch: 26778

The dashed part of the orbit path shows where the satellite is in the earth's shadow,  

DLR